[[{"header":{"parameterUnit":"m.s-1","parameterCategory":1,"la1":30.2991,"la2":30.254,"lo1":-89.0895,"lo2":-89.0444,"dy":0.0017,"dx":0.0017,"nx":28,"ny":28,"refTime":"2025-11-14T03:00:00:Z","depth":0,"parameterNumber":2,"parameterNumberName":"U-component_of_WINDS"},"data":[0,0,0,0,0,0,0,0,0,0,0,0,0,0,0,0,0,0,0,0,0,0,0,0,0,0,0,0,0,0,0,0,0,0,0,0,0,0,0,0,0,0,0,0,0,0,0,0,0,0,0,0,0,0,0,0,0,0,-0.6581,-0.6581,0,-0.6574,-0.6574,-0.6574,-0.6554,-0.6554,-0.6553,-0.6553,-0.6547,-0.6547,-0.6548,0,0,0,0,0,0,0,0,0,0,0,0,0,-0.6578,-0.6578,-0.6581,-0.6581,-0.658,-0.6574,-0.6574,-0.6574,-0.6554,-0.6554,-0.6553,-0.6553,-0.6547,-0.6547,-0.6548,0,0,0,0,0,0,0,0,0,0,0,0,0,-0.6576,-0.6578,-0.6581,-0.657,-0.6569,-0.6574,-0.6574,-0.6574,-0.6555,-0.6554,-0.6553,-0.6553,-0.6547,-0.6547,-0.6548,-0.6563,0,0,-0.6549,-0.6549,0,0,0,0,0,0,0,0,-0.6576,-0.6576,-0.6572,-0.6571,-0.657,-0.6564,-0.6571,-0.657,-0.6555,-0.656,-0.6553,-0.6552,-0.6553,-0.6553,-0.6554,-0.6563,-0.6563,-0.6549,-0.6549,-0.6549,-0.6549,0,0,0,0,0,0,0,-0.6576,-0.6576,-0.6578,-0.6572,-0.657,-0.6566,-0.6565,-0.6571,-0.6561,-0.6559,-0.6558,-0.6558,-0.6553,-0.6553,-0.6553,-0.6563,-0.6549,-0.6549,-0.6549,-0.655,-0.6587,-0.6588,0,0,0,0,0,0,-0.6578,-0.6577,-0.6578,-0.6578,-0.6571,-0.6567,-0.6566,-0.6567,-0.656,-0.6559,-0.6558,-0.6557,-0.6553,-0.6553,-0.6553,-0.6572,-0.6549,-0.655,-0.655,-0.6586,-0.6587,-0.6588,0,0,0,0,0,0,-0.6578,-0.6578,-0.6579,-0.6577,-0.6577,-0.6567,-0.6569,-0.6567,-0.6567,-0.6559,-0.6558,-0.656,-0.6552,-0.6552,-0.6561,-0.6571,-0.655,-0.655,-0.6585,-0.6586,-0.6588,-0.6609,0,0,0,0,0,0,-0.6578,-0.6578,-0.6583,-0.6577,-0.6577,-0.6586,-0.6569,-0.6567,-0.6568,-0.6566,-0.6561,-0.6559,-0.6552,-0.6561,-0.6562,-0.6572,-0.655,-0.6584,-0.6586,-0.6587,-0.6608,-0.6611,-0.6614,0,0,0,0,0,-0.6578,-0.6589,-0.6584,-0.6584,-0.6583,-0.6587,-0.6587,-0.6578,-0.6569,-0.6574,-0.657,-0.656,-0.657,-0.6562,-0.6563,-0.6573,-0.6584,-0.6585,-0.6587,-0.6606,-0.661,-0.6614,0,0,0,0,0,0,-0.6596,-0.6588,-0.6582,-0.6592,-0.659,-0.6583,-0.659,-0.6582,-0.6583,-0.6581,-0.657,-0.6569,-0.658,-0.6577,-0.6568,-0.6589,-0.6576,-0.6577,-0.659,-0.6594,-0.6597,-0.6597,-0.6551,0,0,0,0,0,-0.6602,-0.6605,-0.6598,-0.6607,-0.6607,-0.6599,-0.66,-0.6594,-0.6592,-0.6591,-0.6587,-0.6586,-0.6589,-0.6591,-0.6594,-0.6608,-0.6607,-0.6615,-0.6618,-0.6621,-0.6623,-0.6632,-0.6636,-0.6594,-0.6594,-0.6594,0,0,-0.6613,-0.6609,-0.6611,-0.6611,-0.6609,-0.6614,-0.6598,-0.6603,-0.6607,-0.6592,-0.66,-0.6597,-0.6596,-0.6608,-0.6612,-0.6606,-0.6635,-0.6623,-0.6625,-0.6626,-0.6634,-0.6638,-0.6641,-0.6595,-0.6595,-0.6594,0,0,-0.6635,-0.6632,-0.664,-0.6639,-0.6636,-0.6631,-0.6633,-0.6629,-0.6626,-0.6634,-0.6624,-0.6628,-0.6634,-0.6634,-0.6634,-0.666,-0.6651,-0.6661,-0.6677,-0.6686,-0.6689,-0.6692,-0.6702,-0.6706,-0.6663,-0.6663,-0.6663,0,-0.6648,-0.6654,-0.6645,-0.6651,-0.6652,-0.664,-0.6649,-0.6648,-0.6647,-0.6648,-0.6641,-0.6649,-0.6647,-0.6659,-0.6666,-0.6666,-0.6669,-0.6661,-0.6689,-0.6692,-0.6695,-0.6704,-0.6708,-0.6664,-0.6664,-0.6664,-0.6663,0,-0.6672,-0.6677,-0.6684,-0.6683,-0.6685,-0.6693,-0.6686,-0.6689,-0.6683,-0.6679,-0.6689,-0.6686,-0.6689,-0.6692,-0.6685,-0.6704,-0.67,-0.6691,-0.6678,-0.67,-0.6709,-0.6712,-0.6666,-0.6665,-0.6665,-0.6665,0,0,-0.6704,-0.67,-0.6703,-0.6703,-0.6701,-0.6704,-0.6713,-0.6715,-0.6719,-0.6719,-0.6727,-0.6733,-0.6725,-0.6726,-0.672,-0.6728,-0.675,-0.6719,-0.6718,-0.6725,-0.6772,-0.6779,-0.6783,-0.6745,-0.6745,-0.6746,-0.6772,0,-0.6725,-0.6738,-0.6731,-0.6745,-0.675,-0.674,-0.6747,-0.6747,-0.6744,-0.6749,-0.6746,-0.6751,-0.674,-0.6741,-0.6748,-0.6746,-0.6759,-0.6744,-0.6752,-0.6752,-0.6752,-0.6787,-0.6794,-0.6819,-0.6776,-0.6776,-0.6776,0,-0.6751,-0.6754,-0.6768,-0.6767,-0.6769,-0.6775,-0.6779,-0.6783,-0.6784,-0.6781,-0.6784,-0.6777,-0.6786,-0.6773,-0.6786,-0.6776,-0.6779,-0.6779,-0.678,-0.678,-0.6765,-0.6789,-0.6826,-0.683,-0.6782,-0.6781,-0.6781,0,-0.6774,-0.6781,-0.6791,-0.6792,-0.679,-0.6795,-0.6795,-0.6795,-0.6798,-0.6801,-0.6803,-0.6807,-0.681,-0.6814,-0.6809,-0.68,-0.6823,-0.681,-0.6823,-0.6823,-0.6827,-0.6827,-0.6866,-0.683,-0.683,-0.6829,-0.6829,0,-0.6799,-0.6808,-0.6801,-0.6807,-0.6819,-0.6812,-0.6823,-0.6822,-0.6822,-0.6829,-0.682,-0.6827,-0.682,-0.6826,-0.6823,-0.6835,-0.6836,-0.6835,-0.6834,-0.6836,-0.6836,-0.6838,-0.6836,-0.683,-0.683,-0.683,-0.683,0,-0.6825,-0.6821,-0.6831,-0.683,-0.683,-0.6838,-0.6837,-0.6844,-0.6841,-0.685,-0.6852,-0.6848,-0.6855,-0.6851,-0.6858,-0.6856,-0.6873,-0.6869,-0.6872,-0.6871,-0.6885,-0.6884,-0.6926,-0.6932,-0.6891,-0.6892,-0.6892,0,-0.6841,-0.6849,-0.6848,-0.6852,-0.6853,-0.6859,-0.6862,-0.6856,-0.686,-0.6863,-0.6869,-0.6876,-0.6881,-0.6894,-0.6892,-0.6898,-0.6895,-0.691,-0.6896,-0.6898,-0.6896,-0.6896,-0.6897,-0.6912,-0.6913,-0.6913,-0.6914,0,-0.6871,-0.6869,-0.6873,-0.6878,-0.6882,-0.6886,-0.6889,-0.6892,-0.6887,-0.6892,-0.69,-0.6904,-0.6912,-0.6919,-0.6925,-0.6926,-0.6919,-0.6918,-0.6922,-0.6923,-0.6925,-0.6925,-0.688,-0.6917,-0.6917,-0.6916,-0.6916,-0.6916,-0.6893,-0.69,-0.6901,-0.6907,-0.6909,-0.6912,-0.6919,-0.6918,-0.6924,-0.693,-0.6926,-0.6936,-0.6939,-0.6946,-0.6948,-0.6956,-0.695,-0.6955,-0.6956,-0.6957,-0.6959,-0.6924,-0.6957,-0.6957,-0.6957,-0.6957,-0.6956,0,-0.6922,-0.6923,-0.6929,-0.6933,-0.6939,-0.6933,-0.6936,-0.6941,-0.6949,-0.6952,-0.6958,-0.6968,-0.6976,-0.6976,-0.6983,-0.699,-0.6987,-0.6992,-0.6991,-0.6992,-0.6964,-0.696,-0.6994,-0.6994,-0.6994,-0.6994,-0.6994,-0.6994,-0.6938,-0.695,-0.6948,-0.6961,-0.6962,-0.6971,-0.6974,-0.6977,-0.698,-0.6991,-0.6998,-0.6998,-0.7,-0.7008,-0.7015,-0.7015,-0.7019,-0.7025,-0.7024,-0.6997,-0.6994,-0.699,-0.6987,-0.7025,-0.7026,-0.7051,-0.7052,-0.7052]},{"header":{"parameterUnit":"m.s-1","parameterCategory":1,"la1":30.2991,"la2":30.254,"lo1":-89.0895,"lo2":-89.0444,"dy":0.0017,"dx":0.0017,"nx":28,"ny":28,"refTime":"2025-11-14T03:00:00:Z","depth":0,"parameterNumber":3,"parameterNumberName":"V-component_of_WINDS"},"data":[0,0,0,0,0,0,0,0,0,0,0,0,0,0,0,0,0,0,0,0,0,0,0,0,0,0,0,0,0,0,0,0,0,0,0,0,0,0,0,0,0,0,0,0,0,0,0,0,0,0,0,0,0,0,0,0,0,0,1.5585,1.5585,0,1.561,1.5611,1.5611,1.5648,1.5648,1.5649,1.565,1.5674,1.5674,1.5674,0,0,0,0,0,0,0,0,0,0,0,0,0,1.5566,1.5566,1.5585,1.5585,1.5585,1.561,1.5611,1.5611,1.5648,1.5648,1.5649,1.565,1.5674,1.5674,1.5674,0,0,0,0,0,0,0,0,0,0,0,0,0,1.5581,1.5566,1.5584,1.5607,1.5609,1.561,1.5611,1.5611,1.5647,1.5648,1.5649,1.565,1.5674,1.5674,1.5674,1.5655,0,0,1.5674,1.5674,0,0,0,0,0,0,0,0,1.558,1.5581,1.5603,1.5605,1.5608,1.5627,1.5613,1.5626,1.5647,1.5633,1.565,1.5651,1.5657,1.5659,1.5661,1.5656,1.5657,1.5674,1.5674,1.5674,1.5674,0,0,0,0,0,0,0,1.5579,1.558,1.5595,1.5603,1.5606,1.5615,1.5618,1.5615,1.5639,1.5634,1.5637,1.5639,1.5658,1.5661,1.5662,1.5657,1.5674,1.5674,1.5674,1.5674,1.5638,1.5637,0,0,0,0,0,0,1.5575,1.5579,1.5594,1.5595,1.5596,1.5614,1.5618,1.562,1.5639,1.5643,1.5639,1.5641,1.566,1.5662,1.5663,1.5643,1.5674,1.5674,1.5674,1.5639,1.5638,1.5637,0,0,0,0,0,0,1.5574,1.5576,1.5593,1.5588,1.5591,1.5614,1.5615,1.562,1.5622,1.5643,1.5647,1.5637,1.5661,1.5663,1.5657,1.5644,1.5674,1.5674,1.564,1.5639,1.5638,1.5601,0,0,0,0,0,0,1.5573,1.5575,1.5569,1.5588,1.5591,1.5587,1.5614,1.5619,1.5623,1.5626,1.5642,1.5646,1.5662,1.5657,1.5657,1.5645,1.5674,1.5642,1.564,1.5638,1.5604,1.5599,1.5594,0,0,0,0,0,1.5573,1.5557,1.5568,1.557,1.5583,1.5586,1.5588,1.5607,1.5621,1.5615,1.5628,1.5645,1.5645,1.5656,1.5656,1.5644,1.5643,1.564,1.5638,1.5606,1.56,1.5595,0,0,0,0,0,0,1.5534,1.556,1.5572,1.5562,1.5572,1.5592,1.5584,1.56,1.5605,1.5608,1.5632,1.5635,1.5626,1.5634,1.5645,1.5627,1.5647,1.5644,1.5622,1.5616,1.5612,1.561,1.5674,0,0,0,0,0,1.5525,1.5525,1.5547,1.5536,1.554,1.5561,1.5563,1.5578,1.5588,1.5592,1.5605,1.5613,1.5616,1.5616,1.5619,1.5605,1.5609,1.5597,1.5592,1.5588,1.5586,1.558,1.5574,1.563,1.563,1.563,0,0,1.5505,1.5519,1.5517,1.5529,1.5538,1.5537,1.5564,1.5562,1.5562,1.5591,1.5587,1.5596,1.5608,1.5598,1.5594,1.5604,1.5572,1.5586,1.5582,1.5582,1.5577,1.5571,1.5567,1.5628,1.5629,1.5629,0,0,1.5469,1.5479,1.5471,1.548,1.5494,1.5508,1.5506,1.5524,1.5532,1.5528,1.555,1.555,1.5553,1.556,1.5564,1.5532,1.5548,1.5532,1.5508,1.5501,1.5497,1.5493,1.5481,1.5477,1.553,1.553,1.553,0,1.5442,1.5443,1.5465,1.5462,1.5467,1.5494,1.5486,1.5493,1.5507,1.5509,1.5521,1.5526,1.5535,1.5527,1.552,1.5522,1.552,1.553,1.5496,1.5492,1.5489,1.5478,1.5474,1.5528,1.5528,1.5528,1.5528,0,1.5409,1.5409,1.5402,1.5415,1.5419,1.5413,1.5434,1.5435,1.5449,1.5462,1.5458,1.547,1.5477,1.5476,1.5489,1.547,1.5476,1.5491,1.5512,1.5481,1.5471,1.5467,1.5525,1.5525,1.5526,1.5526,0,0,1.5349,1.5376,1.5372,1.5379,1.5397,1.5397,1.5393,1.54,1.54,1.5409,1.5405,1.5408,1.5422,1.5427,1.5442,1.5436,1.5409,1.5452,1.5452,1.5443,1.5389,1.5377,1.5372,1.542,1.542,1.5419,1.5388,0,1.5316,1.5311,1.5332,1.5321,1.5322,1.5348,1.5344,1.5354,1.5366,1.5368,1.5381,1.5383,1.5402,1.5405,1.54,1.5413,1.5399,1.5416,1.5417,1.5417,1.5413,1.5367,1.5355,1.5325,1.5384,1.5384,1.5383,0,1.5277,1.5284,1.5274,1.5293,1.5294,1.529,1.5299,1.53,1.5312,1.5321,1.5327,1.5344,1.5341,1.5361,1.5357,1.5368,1.537,1.5377,1.5376,1.5376,1.5398,1.5366,1.5316,1.5311,1.5377,1.5378,1.5378,0,1.5234,1.5242,1.5237,1.5242,1.5263,1.526,1.5269,1.5282,1.5285,1.5292,1.5294,1.5301,1.5304,1.5308,1.5327,1.5339,1.532,1.5341,1.5327,1.5327,1.5322,1.5322,1.5271,1.5323,1.5323,1.5323,1.5323,0,1.5195,1.5188,1.5218,1.5215,1.5207,1.5231,1.5223,1.5234,1.5246,1.5245,1.5268,1.5266,1.5291,1.5292,1.5307,1.5301,1.5302,1.5309,1.5313,1.5307,1.5306,1.5308,1.5311,1.5322,1.5322,1.5323,1.5323,0,1.5146,1.5166,1.5162,1.5183,1.5188,1.5182,1.52,1.5198,1.5212,1.521,1.5211,1.5233,1.5236,1.5255,1.5261,1.5271,1.526,1.5268,1.5256,1.5259,1.5244,1.5245,1.5192,1.5186,1.5242,1.5242,1.5241,0,1.512,1.5115,1.5136,1.5137,1.5145,1.5147,1.5151,1.5174,1.5177,1.519,1.5186,1.5191,1.5196,1.5199,1.5215,1.522,1.5229,1.521,1.5229,1.5224,1.5228,1.5228,1.5228,1.5205,1.5205,1.5204,1.5204,0,1.5071,1.5081,1.5086,1.5094,1.5098,1.5106,1.5114,1.5114,1.514,1.5141,1.5145,1.5149,1.5157,1.5161,1.5169,1.5178,1.5194,1.5197,1.5194,1.5188,1.5182,1.5185,1.5245,1.5198,1.5199,1.5199,1.52,1.52,1.5033,1.503,1.5044,1.5049,1.5058,1.5066,1.5065,1.5079,1.5083,1.5092,1.5105,1.5106,1.5119,1.5132,1.5139,1.514,1.515,1.5146,1.5145,1.5143,1.514,1.5182,1.5142,1.5142,1.5142,1.5142,1.5142,0,1.4985,1.4996,1.5,1.5012,1.5016,1.5033,1.5043,1.5045,1.5047,1.5057,1.5062,1.5066,1.5071,1.5087,1.5093,1.5091,1.5099,1.5092,1.5092,1.5094,1.5131,1.5133,1.5085,1.5085,1.5085,1.5085,1.5085,1.5085,1.4961,1.4958,1.497,1.4971,1.4981,1.4984,1.4989,1.4996,1.5004,1.5008,1.5013,1.5024,1.5036,1.5044,1.5049,1.5053,1.5054,1.5044,1.5052,1.5086,1.5091,1.5096,1.5098,1.5045,1.5044,1.5015,1.5014,1.5014]}]]